#timestamp,LO_Frequency,Hit,StdDev 
1527080415.3,286046995.9,N
1527080435.1,286046993.7,N
1527080455.9,286046993.4,N
1527080475.7,286046993.9,N
1527080495.5,286046995.3,N
1527080515.4,286046994.1,N
1527080535.2,286046994.0,N
1527080555.0,286046993.4,N
1527080555.9,286046993.4,N
1527080575.8,286046996.0,N
1527080595.6,286046997.5,N
1527080615.5,286046996.2,N
1527080635.3,286046992.2,N
1527080655.1,286046994.3,N
1527080675.9,286046994.3,N
1527080695.7,286046993.2,N
1527080715.5,286046990.5,N
1527080735.4,286046991.2,N
1527080755.2,286046991.5,N
1527080775.1,286046988.5,Y
1527080776.0,286046988.5,P
1527080795.8,286046996.2,N
1527080815.6,286046995.7,N
1527080835.5,286046995.1,N
1527080855.3,286046996.3,N
1527080875.2,286046999.4,N
1527080895.9,286047001.1,N
1527080915.7,286046997.0,N
1527080935.6,286046995.4,N
1527080955.4,286046993.7,N
1527080975.2,286046996.3,N
1527080995.1,286046995.8,N
1527080996.0,286046995.8,N
1527081015.8,286046996.1,N
1527081035.7,286046998.8,N
1527081055.5,286047001.0,N
1527081075.3,286047000.3,N
1527081095.2,286047002.1,N
1527081115.0,286047002.4,N
1527081115.9,286047002.4,N
1527081135.8,286047002.4,N
1527081155.6,286047002.2,N
1527081175.4,286047002.1,N
1527081195.3,286047003.7,N
1527081215.1,286047004.3,N
1527081235.8,286047004.2,N
1527081255.7,286047003.8,N
1527081275.5,286047001.3,N
1527081295.4,286046999.9,N
1527081315.2,286047001.2,N
1527081335.0,286046997.6,N
1527081335.9,286046997.6,N
1527081355.8,286046996.7,N
1527081375.6,286046997.2,N
1527081395.4,286046999.0,N
1527081415.3,286046996.7,N
1527081435.1,286046997.4,N
1527081455.9,286046995.5,N
1527081475.7,286046993.5,N
1527081495.5,286046993.5,N
1527081515.4,286046994.5,N
1527081535.2,286046993.6,N
1527081555.0,286046992.0,N
1527081555.9,286046992.0,N
1527081575.8,286046994.7,N
1527081595.6,286046993.5,N
1527081615.5,286046994.2,N
1527081635.3,286046996.3,N
1527081655.1,286046995.5,N
1527081675.9,286046995.6,N
1527081695.7,286046995.6,N
1527081715.5,286046995.9,N
1527081735.4,286046996.0,N
1527081755.2,286046994.0,N
1527081775.1,286046995.0,N
1527081776.0,286046995.0,N
1527081795.8,286046999.6,N
1527081815.6,286046998.9,N
1527081835.5,286046997.6,N
1527081855.3,286046997.6,N
1527081875.1,286046996.6,N
1527081895.9,286046999.6,N
1527081915.7,286046998.0,N
1527081935.6,286046993.3,Y
1527081955.4,286046999.5,P
1527081975.2,286046999.6,N
1527082025.1,286047001.0,E
1527082035.0,286046999.3,N
1527082035.9,286046999.3,P
1527082055.8,286046999.6,P
1527082075.6,286046994.9,Y
1527082095.4,286046999.1,P
1527082115.3,286047000.3,N
1527082135.1,286047002.3,P
1527082155.9,286047001.3,N
1527082175.7,286047001.4,N
1527082195.5,286047000.3,N
1527082215.4,286046998.3,N
1527082235.2,286046996.6,N
1527082255.0,286046998.9,N
1527082256.0,286046998.9,N
1527082275.8,286046998.2,N
1527082295.6,286047002.4,N
1527082315.5,286047001.9,N
1527082335.3,286047002.5,N
1527082355.1,286047002.0,N
1527082375.9,286047001.4,N
1527082395.7,286047004.3,N
1527082415.5,286047004.2,N
1527082435.4,286047003.8,N
1527082455.2,286047003.6,N
1527082475.1,286047001.9,N
1527082476.0,286047001.9,N
1527082495.8,286047003.8,N
1527082515.6,286047005.6,N
1527082535.5,286047006.0,N
1527082555.3,286047003.6,N
1527082575.2,286047004.1,N
1527082595.9,286047002.0,N
1527082615.7,286047001.1,N
1527082635.6,286046999.7,N
1527082655.4,286047001.6,N
1527082675.2,286047001.3,N
1527082695.1,286047000.7,N
1527082696.0,286047000.7,N
1527082715.8,286046999.9,N
1527082735.7,286046999.3,N
1527082755.5,286047001.1,N
1527082775.3,286047002.0,N
1527082795.2,286047001.8,N
1527082815.0,286047001.9,N
1527082815.9,286047001.9,N
1527082835.7,286047003.7,N
1527082855.6,286047007.1,Y
1527082875.4,286047005.4,P
1527082895.3,286047005.7,P
1527082915.1,286047005.4,P
1527082916.0,286047005.4,Y
1527082935.8,286047000.2,P
1527082955.7,286047001.0,N
1527082975.5,286046998.1,N
1527082995.4,286046996.8,N
1527083015.2,286046997.7,N
1527083035.0,286046997.6,N
1527083035.9,286046997.6,N
1527083055.8,286046995.5,N
1527083075.6,286046997.6,N
1527083095.4,286046997.1,N
1527083115.3,286046995.0,N
1527083135.1,286046994.9,N
1527083155.9,286046997.1,N
1527083175.7,286046995.6,N
1527083195.5,286046997.8,N
1527083215.4,286046997.5,N
1527083235.2,286046994.9,N
1527083255.0,286046995.3,N
1527083255.9,286046995.3,N
1527083275.8,286046997.5,N
1527083295.6,286046995.7,N
1527083315.5,286046996.1,N
1527083335.3,286046997.5,N
1527083355.1,286046995.5,N
1527083375.9,286046995.1,N
1527083395.7,286046997.9,N
1527083415.5,286046998.0,N
1527083435.4,286046997.5,N
1527083455.2,286046997.7,N
1527083475.1,286046997.6,N
1527083476.0,286046997.6,N
1527083495.8,286046997.2,N
1527083515.6,286046995.5,Y
1527083535.5,286046997.2,P
1527083555.3,286046997.7,P
1527083575.2,286046996.6,P
1527083595.9,286046998.2,Y
1527083615.7,286047002.6,P
1527083635.6,286047002.6,N
1527083655.4,286047000.5,N
1527083675.2,286046996.5,N
1527083695.1,286047000.3,N
1527083696.0,286047000.3,N
1527083715.8,286047004.0,N
1527083735.7,286047001.8,N
1527083755.5,286047001.7,N
1527083775.3,286047001.6,N
1527083795.2,286047001.6,N
1527083815.0,286047003.3,N
1527083815.9,286047003.3,N
1527083835.8,286047005.1,N
1527083855.6,286047005.1,N
1527083875.4,286047006.0,N
1527083895.3,286047005.8,N
1527083915.1,286047005.5,N
1527083935.8,286047005.0,N
1527083955.7,286047005.4,N
1527083975.5,286047001.8,N
1527083995.4,286047001.8,N
